Date String (YYYY-MM-DD hh:mm:ss) UTC,Instrument flags,absolute air pressure of the measurement (hPa),sample flow rate (lpm),inlet stack bypass flow (lpm),air temperature of the measurement (°C),ambient temperature measured by the external sensor (°C),aerosol sample conditioner tube jacket temperature (°C),OPC LED temperature (°C),internal box temperature (°C),relative humidity of the measurement (%),span deviation,mass concentration of particles derived from Lorenz-Mie calculation of OPC scattering (μg/m³),mass concentration of particles derived from Lorenz-Mie calculation of OPC scattering (μg/m³),mass concentration of particles derived from Lorenz-Mie calculation of OPC scattering (μg/m³)
DateTimeUTC,F1_M11,P_M11,Q1_M11,Q2_M11,T1_M11,T2_M11,T3_M11,T4_M11,T5_M11,U1_M11,ZSPAN_M11,X2_M11,X0_M11,X1_M11
2023-08-29 15:00:00,SystemResetWarning,0839.7,5.00,000.00,028.3,026.8,000.0,036.9,030.0,31.6,0000.0,0003.41,0004.96,0003.18
2023-08-29 15:01:00,SystemResetWarning,0839.7,4.99,000.00,028.4,027.0,000.0,036.9,030.1,31.4,0000.0,0003.40,0004.97,0003.17
2023-08-29 15:02:00,SystemResetWarning,0839.7,5.00,000.00,028.4,027.1,000.0,036.9,030.1,31.3,0000.0,0003.39,0004.99,0003.15
2023-08-29 15:03:00,SystemResetWarning,0839.7,4.99,000.00,028.4,027.2,000.0,036.9,030.1,30.9,0000.0,0003.37,0005.06,0003.13
2023-08-29 15:04:00,SystemResetWarning,0839.7,4.99,000.00,028.5,027.3,000.0,036.9,030.2,31.0,0000.0,0003.36,0005.53,0003.12
2023-08-29 15:05:00,SystemResetWarning,0839.7,5.00,000.00,028.5,027.2,000.0,036.9,030.2,30.6,0000.0,0003.37,0005.59,0003.11
2023-08-29 15:06:00,SystemResetWarning,0839.6,5.00,000.00,028.5,025.7,000.0,036.8,029.9,31.1,0000.0,0003.36,0005.40,0003.11
2023-08-29 15:07:00,SystemResetWarning,0839.6,5.00,000.00,028.4,024.5,000.0,036.7,029.7,31.7,0000.0,0003.38,0005.51,0003.12
2023-08-29 15:08:00,SystemResetWarning,0839.6,5.02,000.00,028.3,024.5,000.0,036.6,029.6,31.8,0000.0,0003.40,0005.58,0003.13
2023-08-29 15:09:00,SystemResetWarning,0839.6,5.01,000.00,028.2,024.8,000.0,036.7,029.5,32.3,0000.0,0003.43,0005.71,0003.14
2023-08-29 15:10:00,SystemResetWarning,0839.6,5.00,000.00,028.2,025.2,000.0,036.7,029.6,32.4,0000.0,0003.42,0005.68,0003.15
2023-08-29 15:11:00,SystemResetWarning,0839.6,5.00,000.00,028.2,025.6,000.0,036.7,029.7,32.0,0000.0,0003.44,0005.54,0003.15
2023-08-29 15:12:00,SystemResetWarning,0839.6,5.00,000.00,028.2,025.9,000.0,036.8,029.7,32.0,0000.0,0003.46,0005.65,0003.16
2023-08-29 15:13:00,SystemResetWarning,0839.7,4.99,000.00,028.2,026.2,000.0,036.8,029.8,31.9,0000.0,0003.48,0005.74,0003.18
2023-08-29 15:14:00,SystemResetWarning,0839.7,5.00,000.00,028.2,026.5,000.0,036.8,029.9,32.5,0000.0,0003.52,0005.98,0003.19
2023-08-29 15:15:00,SystemResetWarning,0839.6,5.00,000.00,028.3,026.7,000.0,036.8,029.9,32.2,0000.0,0003.54,0005.43,0003.20
2023-08-29 15:16:00,SystemResetWarning,0839.6,5.00,000.00,028.3,026.9,000.0,036.8,030.0,32.1,0000.0,0003.53,0005.40,0003.20
2023-08-29 15:17:00,SystemResetWarning,0839.6,5.01,000.00,028.3,027.0,000.0,036.8,030.1,32.5,0000.0,0003.52,0005.32,0003.20
2023-08-29 15:18:00,SystemResetWarning,0839.6,5.00,000.00,028.4,027.2,000.0,036.8,030.1,31.8,0000.0,0003.52,0005.22,0003.22
2023-08-29 15:19:00,SystemResetWarning,0839.7,5.00,000.00,028.4,027.2,000.0,036.8,030.1,32.0,0000.0,0003.51,0005.19,0003.22
2023-08-29 15:20:00,SystemResetWarning,0839.7,4.99,000.00,028.4,026.3,000.0,036.8,030.0,31.9,0000.0,0003.50,0005.16,0003.22
2023-08-29 15:21:00,SystemResetWarning,0839.6,5.01,000.00,028.4,024.8,000.0,036.6,029.7,32.2,0000.0,0003.49,0005.11,0003.24
2023-08-29 15:22:00,SystemResetWarning,0839.6,5.01,000.00,028.3,024.4,000.0,036.6,029.5,33.1,0000.0,0003.51,0005.35,0003.25
2023-08-29 15:23:00,SystemResetWarning,0839.7,5.00,000.00,028.2,024.6,000.0,036.6,029.4,32.9,0000.0,0003.52,0005.58,0003.26
2023-08-29 15:24:00,SystemResetWarning,0839.7,5.00,000.00,028.1,025.0,000.0,036.6,029.4,32.8,0000.0,0003.54,0005.59,0003.27
2023-08-29 15:25:00,SystemResetWarning,0839.7,5.00,000.00,028.1,025.4,000.0,036.7,029.6,32.4,0000.0,0003.54,0005.46,0003.28
2023-08-29 15:26:00,SystemResetWarning,0839.7,5.00,000.00,028.1,025.8,000.0,036.7,029.7,32.3,0000.0,0003.55,0005.47,0003.28
2023-08-29 15:27:00,SystemResetWarning,0839.7,5.00,000.00,028.1,026.1,000.0,036.7,029.7,32.7,0000.0,0003.56,0006.03,0003.29
2023-08-29 15:28:00,SystemResetWarning,0839.7,5.00,000.00,028.2,026.4,000.0,036.7,029.8,32.3,0000.0,0003.59,0006.14,0003.31
2023-08-29 15:29:00,SystemResetWarning,0839.7,5.00,000.00,028.2,026.6,000.0,036.7,029.9,32.6,0000.0,0003.60,0006.25,0003.31
2023-08-29 15:30:00,SystemResetWarning,0839.7,5.00,000.00,028.2,026.8,000.0,036.7,030.0,32.6,0000.0,0003.60,0006.22,0003.32
2023-08-29 15:31:00,SystemResetWarning,0839.7,5.00,000.00,028.3,027.0,000.0,036.7,030.0,32.5,0000.0,0003.61,0006.21,0003.32
2023-08-29 15:32:00,SystemResetWarning,0839.7,5.00,000.00,028.3,027.1,000.0,036.8,030.1,32.1,0000.0,0003.65,0006.43,0003.32
2023-08-29 15:33:00,SystemResetWarning,0839.7,4.99,000.00,028.3,026.6,000.0,036.7,030.0,32.1,0000.0,0003.67,0006.38,0003.32
2023-08-29 15:34:00,SystemResetWarning,0839.7,5.00,000.00,028.3,025.2,000.0,036.6,029.7,31.8,0000.0,0003.68,0006.21,0003.32
2023-08-29 15:35:00,SystemResetWarning,0839.6,5.00,000.00,028.2,024.4,000.0,036.5,029.5,31.9,0000.0,0003.69,0006.35,0003.32
2023-08-29 15:36:00,SystemResetWarning,0839.7,5.01,000.00,028.1,024.5,000.0,036.5,029.3,31.9,0000.0,0003.70,0006.56,0003.33
2023-08-29 15:37:00,SystemResetWarning,0839.7,5.02,000.00,028.0,024.8,000.0,036.5,029.3,32.4,0000.0,0003.69,0006.44,0003.33
2023-08-29 15:38:00,SystemResetWarning,0839.7,5.00,000.00,028.0,025.2,000.0,036.6,029.4,31.6,0000.0,0003.69,0006.05,0003.34
2023-08-29 15:39:00,SystemResetWarning,0839.7,5.00,000.00,028.0,025.6,000.0,036.6,029.5,31.7,0000.0,0003.68,0005.75,0003.33
2023-08-29 15:40:00,SystemResetWarning,0839.7,5.01,000.00,028.0,025.9,000.0,036.6,029.7,32.1,0000.0,0003.65,0005.65,0003.31
2023-08-29 15:41:00,SystemResetWarning,0839.7,5.00,000.00,028.1,026.2,000.0,036.6,029.7,31.8,0000.0,0003.68,0005.78,0003.31
2023-08-29 15:42:00,SystemResetWarning,0839.7,4.99,000.00,028.1,026.5,000.0,036.6,029.8,32.1,0000.0,0003.71,0006.15,0003.32
2023-08-29 15:43:00,SystemResetWarning,0839.7,5.00,000.00,028.2,026.7,000.0,036.6,029.9,32.3,0000.0,0003.70,0006.41,0003.31
2023-08-29 15:44:00,SystemResetWarning,0839.7,5.00,000.00,028.2,026.9,000.0,036.7,029.9,33.2,0000.0,0003.66,0006.20,0003.32
2023-08-29 15:45:00,SystemResetWarning,0839.7,5.00,000.00,028.2,027.0,000.0,036.7,030.0,33.4,0000.0,0003.65,0006.11,0003.33
2023-08-29 15:46:00,SystemResetWarning,0839.8,5.00,000.00,028.3,026.9,000.0,036.7,030.0,32.6,0000.0,0003.63,0005.94,0003.34
2023-08-29 15:47:00,SystemResetWarning,0839.7,5.00,000.00,028.3,025.6,000.0,036.5,029.8,32.3,0000.0,0003.64,0005.80,0003.37
2023-08-29 15:48:00,SystemResetWarning,0839.7,5.00,000.00,028.2,024.5,000.0,036.4,029.5,33.2,0000.0,0003.66,0005.87,0003.38
2023-08-29 15:49:00,SystemResetWarning,0839.7,5.01,000.00,028.1,024.4,000.0,036.4,029.4,32.3,0000.0,0003.69,0006.23,0003.39
2023-08-29 15:50:00,SystemResetWarning,0839.7,5.00,000.00,028.0,024.6,000.0,036.4,029.3,32.5,0000.0,0003.73,0006.41,0003.40
2023-08-29 15:51:00,SystemResetWarning,0839.7,5.00,000.00,028.0,025.0,000.0,036.5,029.4,32.8,0000.0,0003.76,0006.59,0003.41
2023-08-29 15:52:00,SystemResetWarning,0839.7,5.00,000.00,028.0,025.4,000.0,036.5,029.5,33.1,0000.0,0003.77,0006.70,0003.42
2023-08-29 15:53:00,SystemResetWarning,0839.7,5.00,000.00,028.0,025.8,000.0,036.5,029.6,32.5,0000.0,0003.77,0006.67,0003.42
2023-08-29 15:54:00,SystemResetWarning,0839.7,5.00,000.00,028.0,026.1,000.0,036.5,029.7,33.2,0000.0,0003.76,0006.83,0003.43
2023-08-29 15:55:00,SystemResetWarning,0839.7,4.99,000.00,028.1,026.4,000.0,036.6,029.7,33.0,0000.0,0003.78,0007.05,0003.43
2023-08-29 15:56:00,SystemResetWarning,0839.8,5.00,000.00,028.1,026.6,000.0,036.6,029.8,32.6,0000.0,0003.78,0007.92,0003.42
2023-08-29 15:57:00,SystemResetWarning,0839.7,5.00,000.00,028.1,026.8,000.0,036.6,029.9,33.0,0000.0,0003.78,0008.00,0003.42
2023-08-29 15:58:00,SystemResetWarning,0839.8,5.00,000.00,028.2,026.9,000.0,036.6,029.9,32.6,0000.0,0003.77,0008.13,0003.41
2023-08-29 15:59:00,SystemResetWarning,0839.7,4.99,000.00,028.2,025.9,000.0,036.5,029.8,32.5,0000.0,0003.77,0008.37,0003.40
